Regional Weather Roundup
Issued by NWS New Orleans/Baton Rouge, LA

Home | Current Version | Previous Version | Graphics & Text | Print | Product List | Glossary On
Versions: 1 2 3 4 5 6 7 8 9 10 11 12 13 14 15 16 17 18 19 20 21 22 23 24 25 26 27 28 29 30 31 32 33 34 35 36 37 38 39 40 41 42 43 44 45 46 47 48 49 50
779
ASUS44 KLIX 220805
RWRLIX
NEW ORLEANS REGIONAL WEATHER ROUNDUP
NATIONAL WEATHER SERVICE NEW ORLEANS LA
300 AM CDT WED OCT 22 2014

NOTE: "FAIR" INDICATES FEW OR NO CLOUDS BELOW 12,000 FEET WITH NO
      SIGNIFICANT WEATHER AND/OR OBSTRUCTIONS TO VISIBILITY.
      SKY/WX - SKY CONDITION AND SIGNIFICANT WEATHER.
      TMP - AIR TEMPERATURE.     DP    - DEWPOINT TEMPERATURE.
      RH  - RELATIVE HUMIDITY.   PRES  - PRESSURE.
      HI  - HEAT INDEX.          WCI   - WIND CHILL INDEX.

*  THESE STATIONS ARE NOT NWS OR FAA STATIONS AND ARE NOT UNDER
   NWS QUALITY CONTROL.

LAZ038-040-048-061>063-065>067-069-220900-
SOUTHEAST LOUISIANA

CITY           SKY/WX    TMP DP  RH WIND       PRES   REMARKS
N.O. AUDUBON     N/A     64  61  90 MISG        N/A
N.O. INTL ARPT PTCLDY    67  59  75 NE6       30.02S
N.O. LAKEFRONT CLEAR     71  60  68 NE14      30.02S
N.O. DOWNTOWN*   N/A     70  55  60 NE6       30.02F
SLIDELL        CLEAR     55  52  89 CALM      30.02S
BATON ROUGE    CLEAR     58  56  93 CALM      30.04S
BOOTHVILLE     CLEAR     70  63  78 N5        30.00F
BELLE CHASSE   CLEAR     58  54  86 NE3       30.01F
BOGALUSA*        N/A     54  51  90 NE3       30.05S
NEW ROADS*       N/A     60  58  92 NE3       30.05R
GONZALES*        N/A     58  58 100 CALM      30.03S
HAMMOND*       CLEAR     55  52  88 N3        30.04S
HOUMA*         CLEAR     56  55  99 CALM      30.02S
PORT FOURCHON* SUNNY     70  64  83 N6        30.03F

$$

MSZ070-080>082-220900-
SOUTHERN MISSISSIPPI

CITY           SKY/WX    TMP DP  RH WIND       PRES   REMARKS
MCCOMB         CLEAR     62  56  80 N6        30.05S
GULFPORT       CLEAR     57  55  93 CALM      30.02R
BILOXI         CLEAR     60  55  83 NE6       30.02R
PASCAGOULA     CLEAR     52  51  97 CALM      30.02S

$$

COASTAL OBSERVATIONS
LAKE AND NEARSHORE STATIONS

STATION/POSITION TIME  TEMP    WIND        PRES    WAVE
                       AIR SEA DIR/SP/G            HT/PER
                 (UTC) (F)     (DEG/KT/KT) (MB)    (FT/S)
PASCAGOULA       0800   61      10/  5/  6 1015.8
WAVELAND YACHT   0800   66      50/  6/  7 1015.8
GRAND ISLE       0800   71 75   40/  9/ 12 1016.3
SOUTHWEST PASS   0800   73 83              1015.7
NEW CANAL        0800   72 72   50/ 15/ 17 1016.6
SHELL BEACH      0800   71 69   40/ 12/ 13 1016.1

OFFSHORE STATIONS

STATION/POSITION TIME  TEMP    WIND        PRES    WAVE
                       AIR SEA DIR/SP/G            HT/PER
                 (UTC) (F)     (DEG/KT/KT) (MB)    (FT/S)
64 S DAUPHIN ISL 0745   76 79   40/ 14/ 17 1015.6    2/ 4

$$




USA.gov is the U.S. government's official web portal to all federal, state and local government web resources and services.